Location: Ostrava
(49.8330°N, 18.2830°E)
Time: 09:49:18
(UTC+02:00)

Explorer 7 - Visible Passes

Search period start: 02 April 2015 00:00
Search period end: 12 April 2015 00:00
Orbit: 489 x 696 km, 50.3° (Epoch: 01 April)

Date Brightness Start Highest point End Pass type
(mag) Time Alt. Az. Time Alt. Az. Time Alt. Az.
02 Apr 7.1 20:03:23 10° W 20:08:05 84° S 20:12:07 12° ESE visible
02 Apr 7.9 21:44:29 10° W 21:48:35 34° SSW 21:48:39 34° SSW visible
03 Apr 7.2 20:11:45 10° WNW 20:16:23 70° SSW 20:20:08 14° ESE visible
03 Apr 8.5 21:53:05 10° W 21:56:40 24° SW 21:56:40 24° SW visible
04 Apr 7.5 20:20:06 10° WNW 20:24:39 53° SSW 20:28:12 14° SE visible
04 Apr 9.1 22:02:00 10° W 22:04:43 16° SW 22:04:45 16° SW visible
05 Apr 8.0 20:28:31 10° W 20:32:49 39° SSW 20:36:18 13° SE visible
06 Apr 8.6 20:37:01 10° W 20:40:56 27° SW 20:44:27 11° SSE visible
07 Apr 9.2 20:45:45 10° W 20:48:57 19° SW 20:51:57 10° S visible
08 Apr 9.6 20:55:11 10° WSW 20:56:55 12° SW 20:58:27 10° SSW visible
